Regional Weather Roundup
Issued by NWS

Home | Current Version | Previous Version | Graphics & Text | Print | Product List | Glossary On
Versions: 1 2 3 4 5 6 7 8 9 10 11 12 13 14 15 16 17 18 19 20 21 22 23 24 25 26 27 28 29 30 31 32 33 34 35 36 37 38 39 40 41 42 43 44 45 46 47 48 49 50
854
ASUS43 KDTX 240010
RWRMI
MICHIGAN HOURLY REGIONAL WEATHER ROUNDUP
NATIONAL WEATHER SERVICE DETROIT/PONTIAC MI
800 PM EDT MON MAY 23 2016

NOTE: "FAIR" INDICATES FEW OR NO CLOUDS BELOW 12,000 FEET WITH NO
SIGNIFICANT WEATHER AND/OR OBSTRUCTION TO VISIBILITY.

MIZ047>049-052>055-059>063-066>070-074>076-081>083-240100-
SOUTHEAST LOWER MICHIGAN

CITY           SKY/WX    TMP DP  RH WIND       PRES   REMARKS
ADRIAN         CLEAR     74  36  25 CALM      29.98S
6HR MIN TEMP:  73; 6HR MAX TEMP:  78;

ALMA           CLEAR     73  36  26 S13       29.96R
ANN ARBOR      CLEAR     70  42  36 SW5       29.97S
BAD AXE        CLEAR     70  42  36 E6        29.96S
CARO           CLEAR     72  38  29 S5        29.95S
DETROIT CITY   CLEAR     72  40  31 S8        29.98S
6HR MIN TEMP:  72; 6HR MAX TEMP:  76;

DETROIT        CLEAR     71  43  36 SE7       29.99S
6HR MIN TEMP:  71; 6HR MAX TEMP:  76;

FLINT          CLEAR     76  36  23 S5        29.96S
6HR MIN TEMP:  76; 6HR MAX TEMP:  81;

GROSSE ILE     CLEAR     66  48  52 SE5       29.98S
HILLSDALE      CLEAR     73  16  11 SW3       29.99S
6HR MIN TEMP:  72; 6HR MAX TEMP:  75;

HOWELL         CLEAR     73  31  21 S5        29.97S
6HR MIN TEMP:  73; 6HR MAX TEMP:  77;


CITY           SKY/WX    TMP DP  RH WIND       PRES   REMARKS
JACKSON        CLEAR     72  32  23 S6        29.97S
6HR MIN TEMP:  72; 6HR MAX TEMP:  77; 6HR PCP: TRACE;

LAMBERTVILLE   CLEAR     72  48  42 E3        29.99S
6HR MIN TEMP:  72; 6HR MAX TEMP:  78;

LANSING        CLEAR     73  38  27 SW6       29.97R
6HR MIN TEMP:  73; 6HR MAX TEMP:  78;

LAPEER         FAIR      75  28  18 CALM      29.97S
6HR MIN TEMP:  73; 6HR MAX TEMP:  78;

MASON          CLEAR     75  35  23 S5        29.97R
MONROE         CLEAR     68  46  45 S8        29.98S
6HR MIN TEMP:  68; 6HR MAX TEMP:  74;

MT. CLEMENS    CLEAR     67  49  52 S8        29.96S
6HR MIN TEMP:  67; 6HR MAX TEMP:  74;

PONTIAC        CLEAR     74  25  16 S7        29.97S
6HR MIN TEMP:  73; 6HR MAX TEMP:  78;

PORT HOPE        N/A     63  41  44 SE8       29.95S
6HR MIN TEMP:  57; 6HR MAX TEMP:  65;

PORT HURON     CLEAR     70  45  40 S7        29.98S
TRI CITIES     CLEAR     77  38  24 S8        29.95S
6HR MIN TEMP:  75; 6HR MAX TEMP:  80;

MIDLAND        FAIR      76  40  27 SW5       29.94R
6HR MIN TEMP:  76; 6HR MAX TEMP:  80;

TROY           CLEAR     75  41  29 SE9       29.99S
SAGINAW HB     CLEAR     73  32  21 S7        29.95S
$$
MIZ043>046-050>051-056>058-064>065-071>073-077>080-240100-
SOUTHWEST LOWER MICHIGAN

CITY           SKY/WX    TMP DP  RH WIND       PRES   REMARKS
BATTLE CREEK   CLEAR     73  34  23 SW9       29.98R
6HR MIN TEMP:  73; 6HR MAX TEMP:  77;

BENTON HARBOR  SUNNY     74  39  28 CALM      29.95S
6HR MIN TEMP:  73; 6HR MAX TEMP:  81;

BIG RAPIDS     SUNNY     75  41  29 SW7       29.94S
6HR MIN TEMP:  75; 6HR MAX TEMP:  79;

COLDWATER      CLEAR     73  30  20 CALM      29.98R
6HR MIN TEMP:  73; 6HR MAX TEMP:  76;

FREMONT        FAIR      74  40  29 W8        29.96R
HOLLAND        SUNNY     73  41  31 W7        29.97R
6HR MIN TEMP:  73; 6HR MAX TEMP:  81;

GRAND RAPIDS   MOSUNNY   78  38  23 S7        29.96R
6HR MIN TEMP:  78; 6HR MAX TEMP:  83;

IONIA          FAIR      76  34  21 S6        29.95S
6HR MIN TEMP:  74; 6HR MAX TEMP:  79;

KALAMAZOO      SUNNY     76  31  19 S6        29.97S
6HR MIN TEMP:  73; 6HR MAX TEMP:  80;

LUDINGTON      SUNNY     69  36  29 S12       29.95F
6HR MIN TEMP:  68; 6HR MAX TEMP:  73;

MARSHALL       CLEAR     74  32  21 S6        29.97R
6HR MIN TEMP:  74; 6HR MAX TEMP:  79;

MOUNT PLEASANT SUNNY     76  40  27 S5        29.94S
6HR MIN TEMP:  76; 6HR MAX TEMP:  80;

MUSKEGON       MOSUNNY   71  40  32 W5        29.96S
6HR MIN TEMP:  71; 6HR MAX TEMP:  78;

SOUTH HAVEN    SUNNY     73  38  28 CALM      29.96S
$$
MIZ016>042-240100-
NORTHERN LOWER MICHIGAN

CITY           SKY/WX    TMP DP  RH WIND       PRES   REMARKS
ALPENA         CLEAR     62  45  53 E6        29.91F
6HR MIN TEMP:  62; 6HR MAX TEMP:  77;

BEAVER ISLAND  SUNNY     64  35  32 SW14G21   29.91F
6HR MIN TEMP:  64; 6HR MAX TEMP:  74;

BELLAIRE       SUNNY     76  41  28 CALM      29.92R
6HR MIN TEMP:  76; 6HR MAX TEMP:  82;

CADILLAC       SUNNY     74  39  28 W10       29.95R
CHARLEVOIX     SUNNY     67  39  34 SW5       29.94S
FRANKFORT      SUNNY     67  39  36 S10       29.93S
GAYLORD        SUNNY     76  44  32 N5        29.93R
6HR MIN TEMP:  76; 6HR MAX TEMP:  83;

GRAYLING       SUNNY     78  37  22 S6        29.94S
HARBOR SPRINGS SUNNY     67  37  33 W8        29.93S
HOUGHTON LAKE  SUNNY     75  42  30 SW5       29.93F
6HR MIN TEMP:  75; 6HR MAX TEMP:  81;

MANISTEE       SUNNY     72  34  25 S9        29.94F
OSCODA         CLEAR     73  34  24 S7        29.93S
6HR MIN TEMP:  73; 6HR MAX TEMP:  77;

PELLSTON       SUNNY     70  35  27 W10       29.93R
6HR MIN TEMP:  70; 6HR MAX TEMP:  81;

ROGERS CITY    CLEAR     58  45  61 N3        29.92S
TRAVERSE CITY  SUNNY     77  35  21 VRB6      29.91R
6HR MIN TEMP:  77; 6HR MAX TEMP:  84;

$$
MIZ007>008-015-240100-
EASTERN UPPER MICHIGAN

CITY           SKY/WX    TMP DP  RH WIND       PRES   REMARKS
KINROSS          N/A     72  39  30 S8        29.90S
6HR MIN TEMP:  72; 6HR MAX TEMP:  79;

MACKINAC ISLAN SUNNY     65  42  43 S3        29.92R
6HR MIN TEMP:  64; 6HR MAX TEMP:  72;

NEWBERRY       SUNNY     66  40  38 S13G22    29.88F
6HR MIN TEMP:  66; 6HR MAX TEMP:  74;

S. S. MARIE    SUNNY     74  38  27 S6        29.89F
6HR MIN TEMP:  74; 6HR MAX TEMP:  81;

MUNISING         N/A     74  42  31 S14G24    29.81R
6HR MIN TEMP:  74; 6HR MAX TEMP:  84;

$$
MIZ004>006-011>014-085-240100-
CENTRAL UPPER MICHIGAN

CITY           SKY/WX    TMP DP  RH WIND       PRES   REMARKS
MANISTIQUE     SUNNY     57  42  57 S12G17    29.88S
6HR MIN TEMP:  57; 6HR MAX TEMP:  60;

ESCANABA       SUNNY     63  45  51 S12       29.85S
6HR MIN TEMP:  63; 6HR MAX TEMP:  66;

MENOMINEE      SUNNY     70  46  42 S12       29.85S
6HR MIN TEMP:  69; 6HR MAX TEMP:  76; 6HR PCP: TRACE;

SAWYER-GWINN   SUNNY     73  46  38 S21G31    29.82S
$$
MIZ001>003-009>011-084-240100-
WESTERN UPPER MICHIGAN

CITY           SKY/WX    TMP DP  RH WIND       PRES   REMARKS
IRON MOUNTAIN  CLOUDY    81  43  26 S17G23    29.80R
6HR MIN TEMP:  81; 6HR MAX TEMP:  87;

HOUGHTON       CLOUDY    71  52  50 NW13      29.75R
6HR MIN TEMP:  71; 6HR MAX TEMP:  87;

COPPER HARBOR    N/A     69  52  54 CALM      29.73F
6HR MIN TEMP:  61; 6HR MAX TEMP:  86;

IRONWOOD       CLOUDY    66  63  88 S5        29.76S
                                      6HR PCP:  0.14;

$$

ABBREVIATIONS USED IN REMARKS
   TC - TEMPERATURE IN CELSIUS
  WCI - WIND CHILL INDEX
   HX - HEAT INDEX
  VSB - VISIBILITY





USA.gov is the U.S. government's official web portal to all federal, state and local government web resources and services.